Torna al catalogo

COSMOS 829

AttivoMilitareLEO
NORAD 8893·PAYLOAD·🇷🇺 Russia

Lanciato Jun 15, 1976 da Plesetsk Cosmodrome

Loading…

Prossimi Passaggi (prossime 24 ore)

TLE

AggiornatoSource: Space-Track

Epoca: Sep 14, 2026, 08:19 UTC

1 08893U 76054E   26257.34711479 -.00000022  00000-0 -42021-4 0  9997
2 08893  73.9985 225.9460 0025313  38.4889 114.2238 12.48681396290418

Traccia COSMOS 829 in tempo reale con AllMySat

Download on the App Store